This is the latest recevied weather packets stored in our database for station/object K7FLA. If no packets are shown the sender has not sent any weather packets the latest 10 day(s).
| Time | Temp. | Humidity | Pressure | Rain* | Wind** | Luminosity | Snow |
|---|---|---|---|---|---|---|---|
| 1778033747 | 12.78° C | 66% | 1094.7 hPa | 0 mm | - | 4 W/m² | - |
| 1778033444 | 12.78° C | 66% | 1094.6 hPa | 0 mm | - | 6 W/m² | - |
| 1778033142 | 12.78° C | 66% | 1094.7 hPa | 0 mm | - | 8 W/m² | - |
| 1778032839 | 12.78° C | 65% | 1094.3 hPa | 0 mm | - | 6 W/m² | - |
| 1778032537 | 12.78° C | 64% | 1094.3 hPa | 0 mm | - | 8 W/m² | - |
| 1778032233 | 12.78° C | 64% | 1094.3 hPa | 0 mm | - | 8 W/m² | - |
| 1778031931 | 13.33° C | 63% | 1094.5 hPa | 0 mm | - | 11 W/m² | - |
| 1778031626 | 13.33° C | 63% | 1094.2 hPa | 0 mm | - | 12 W/m² | - |
| 1778031325 | 13.33° C | 63% | 1094.2 hPa | 0 mm | - | 14 W/m² | - |
| 1778031021 | 13.33° C | 63% | 1094 hPa | 0 mm | - | 16 W/m² | - |
| 1778030717 | 13.33° C | 62% | 1094 hPa | 0 mm | - | 20 W/m² | - |
| 1778030414 | 13.33° C | 62% | 1094.2 hPa | 0 mm | - | 20 W/m² | - |
| 1778030112 | 13.89° C | 61% | 1094 hPa | 0 mm | - | 27 W/m² | - |
| 1778029808 | 13.33° C | 61% | 1094 hPa | 0 mm | - | 28 W/m² | - |
| 1778029508 | 13.33° C | 61% | 1093.9 hPa | 0 mm | - | 23 W/m² | - |
| 1778029203 | 13.89° C | 60% | 1093.9 hPa | 0 mm | - | 27 W/m² | - |
| 1778028901 | 13.89° C | 59% | 1094 hPa | 0 mm | - | 35 W/m² | - |
| 1778028596 | 13.89° C | 59% | 1093.8 hPa | 0 mm | - | 32 W/m² | - |
| 1778028294 | 13.89° C | 58% | 1093.8 hPa | 0 mm | - | 13 W/m² | - |
| 1778027990 | 13.89° C | 58% | 1093.9 hPa | 0 mm | - | 11 W/m² | - |
| 1778027687 | 13.89° C | 58% | 1094 hPa | 0 mm | - | 10 W/m² | - |
| 1778027383 | 13.89° C | 58% | 1094 hPa | 0 mm | - | 14 W/m² | - |
| 1778027079 | 13.89° C | 57% | 1093.9 hPa | 0 mm | - | 19 W/m² | - |
| 1778026775 | 14.44° C | 57% | 1093.7 hPa | 0 mm | - | 33 W/m² | - |
| 1778026472 | 14.44° C | 56% | 1093.8 hPa | 0 mm | - | 26 W/m² | - |
* Rain latest hour (hover to see other rain measurements)
** Current wind speed in m/s (hover to see current wind gust speed)